Regional Weather Roundup
Issued by NWS

Home | Current Version | Previous Version | Text Only | Print | Product List | Glossary Off
Versions: 1 2 3 4 5 6 7 8 9 10 11 12 13 14 15 16 17 18 19 20 21 22 23 24 25 26 27 28 29 30 31 32 33 34 35 36 37 38 39 40 41 42 43 44 45 46 47 48 49 50

522
ASUS43 KFSD 280710
RWRSD

WEATHER ROUNDUP FOR SOUTH DAKOTA
NATIONAL WEATHER SERVICE SIOUX FALLS SD
100 AM CST TUE FEB 28 2017

NOTE: "FAIR" INDICATES FEW OR NO CLOUDS BELOW 12,000 FEET WITH NO
SIGNIFICANT WEATHER AND/OR OBSTRUCTIONS TO VISIBILITY.


SDZ001>005-009-010-012>017-280800-
NORTHWEST AND NORTH CENTRAL SOUTH DAKOTA

CITY           SKY/WX    TMP DP  RH WIND       PRES   REMARKS
BUFFALO          N/A     20  17  88 E15       29.64F WCI   6
FAITH            N/A     21  21 100 NE16      29.74R WCI   7
MOBRIDGE       CLOUDY    27  22  81 NE12      29.76R WCI  17
$$

SDZ012>016-024>037-041>051-057-063-072>074-280800-
SOUTHWEST AND SOUTH CENTRAL SOUTH DAKOTA

CITY           SKY/WX    TMP DP  RH WIND       PRES   REMARKS
RAPID CTY ARPT CLEAR     22  19  89 N8        29.67F WCI  12
PIERRE         LGT SNOW  32  31  96 W5        29.73R FOG     WCI  27
CUSTER         CLOUDY    18  12  77 SW3       29.60S
ELLSWORTH AFB  PTCLDY    23  22  96 NE5       29.67F WCI  17
PHILIP         CLOUDY    29  28  96 N7        29.74R WCI  22
PINE RIDGE     FOG       32  32 100 CALM      29.69R VSB 1/2
SPEARFISH      FAIR      21  19  93 NE6       29.65R WCI  14
WINNER         CLOUDY    34  29  82 NE5       29.68F WCI  30
$$

SDZ004>011-016>023-039-040-280800-
NORTHEAST SOUTH DAKOTA

CITY           SKY/WX    TMP DP  RH WIND       PRES   REMARKS
ABERDEEN       LGT SNOW  25  21  85 NE16      29.80S FOG     WCI  12
WATERTOWN      CLOUDY    30  26  85 NE7       29.74R WCI  23
BROOKINGS      CLOUDY    33  29  85 NE3       29.72R
SISSETON         N/A     27  26  96 N15       29.80R WCI  15
$$

SDZ017-020-022-023-036>040-048>070-280800-
SOUTHEAST SOUTH DAKOTA

CITY           SKY/WX    TMP DP  RH WIND       PRES   REMARKS
SIOUX FALLS    PTCLDY    33  30  88 NE7       29.69F WCI  27
HURON          CLOUDY    31  29  92 NE3       29.73R
CHAMBERLAIN    CLOUDY    35  28  76 N8        29.69F WCI  29
MITCHELL       MOCLDY    33  30  88 NW5       29.72R WCI  29
YANKTON        CLOUDY    34  27  75 NE8       29.66S WCI  27
$$

ABBREVIATIONS USED IN REMARKS
   TC - TEMPERATURE IN CELSIUS
  WCI - WIND CHILL INDEX
   HX - HEAT INDEX
  VSB - VISIBILITY





USA.gov is the U.S. government's official web portal to all federal, state and local government web resources and services.